Year,Month,Day,Hour,Minute,Value (Times are PST for temperature in C)
2012,08,09,00,00,12.70
2012,08,09,00,01,12.70
2012,08,09,00,02,12.60
2012,08,09,00,03,12.60
2012,08,09,00,04,12.60
2012,08,09,00,05,12.60
2012,08,09,00,06,12.50
2012,08,09,00,07,12.50
2012,08,09,00,08,12.50
2012,08,09,00,09,12.50
2012,08,09,00,10,12.50
2012,08,09,00,11,12.50
2012,08,09,00,12,12.50
2012,08,09,00,13,12.50
2012,08,09,00,14,12.50
2012,08,09,00,15,12.50
2012,08,09,00,16,12.50
2012,08,09,00,17,12.50
2012,08,09,00,18,12.50
2012,08,09,00,19,12.60
2012,08,09,00,20,12.60
2012,08,09,00,21,12.60
2012,08,09,00,22,12.60
2012,08,09,00,23,12.60
2012,08,09,00,24,12.60
2012,08,09,00,25,12.50
2012,08,09,00,26,12.50
2012,08,09,00,27,12.50
2012,08,09,00,28,12.50
2012,08,09,00,29,12.50
2012,08,09,00,30,12.50
2012,08,09,00,31,12.50
2012,08,09,00,32,12.50
2012,08,09,00,33,12.50
2012,08,09,00,34,12.50
2012,08,09,00,35,12.60
2012,08,09,00,36,12.60
2012,08,09,00,37,12.60
2012,08,09,00,38,12.60
2012,08,09,00,39,12.60
2012,08,09,00,40,12.60
2012,08,09,00,41,12.60
2012,08,09,00,42,12.60
2012,08,09,00,43,12.60
2012,08,09,00,44,12.60
2012,08,09,00,45,12.60
2012,08,09,00,46,12.60
2012,08,09,00,47,12.60
2012,08,09,00,48,12.60
2012,08,09,00,49,12.60
2012,08,09,00,50,12.60
2012,08,09,00,51,12.60
2012,08,09,00,52,12.60
2012,08,09,00,53,12.60
2012,08,09,00,54,12.60
2012,08,09,00,55,12.60
2012,08,09,00,56,12.60
2012,08,09,00,57,12.50
2012,08,09,00,58,12.50
2012,08,09,00,59,12.50
2012,08,09,01,00,12.40
2012,08,09,01,01,12.40
2012,08,09,01,02,12.40
2012,08,09,01,03,12.40
2012,08,09,01,04,12.40
2012,08,09,01,05,12.30
2012,08,09,01,06,12.30
2012,08,09,01,07,12.20
2012,08,09,01,08,12.20
2012,08,09,01,09,12.20
2012,08,09,01,10,12.10
2012,08,09,01,11,12.10
2012,08,09,01,12,12.00
2012,08,09,01,13,12.00
2012,08,09,01,14,12.00
2012,08,09,01,15,12.00
2012,08,09,01,16,12.00
2012,08,09,01,17,12.00
2012,08,09,01,18,12.00
2012,08,09,01,19,12.00
2012,08,09,01,20,12.10
2012,08,09,01,21,12.10
2012,08,09,01,22,12.10
2012,08,09,01,23,12.20
2012,08,09,01,24,12.20
2012,08,09,01,25,12.20
2012,08,09,01,26,12.10
2012,08,09,01,27,12.10
2012,08,09,01,28,12.10
2012,08,09,01,29,12.10
2012,08,09,01,30,12.10
2012,08,09,01,31,12.00
2012,08,09,01,32,12.00
2012,08,09,01,33,12.00
2012,08,09,01,34,11.90
2012,08,09,01,35,11.90
2012,08,09,01,36,11.90
2012,08,09,01,37,11.90
2012,08,09,01,38,11.90
2012,08,09,01,39,11.80
2012,08,09,01,40,11.80
2012,08,09,01,41,11.80
2012,08,09,01,42,11.80
2012,08,09,01,43,11.80
2012,08,09,01,44,11.80
2012,08,09,01,45,11.80
2012,08,09,01,46,11.70
2012,08,09,01,47,11.70
2012,08,09,01,48,11.70
2012,08,09,01,49,11.70
2012,08,09,01,50,11.60
2012,08,09,01,51,11.60
2012,08,09,01,52,11.60
2012,08,09,01,53,11.60
2012,08,09,01,54,11.60
2012,08,09,01,55,11.50
2012,08,09,01,56,11.40
2012,08,09,01,57,11.40
2012,08,09,01,58,11.40
2012,08,09,01,59,11.30
2012,08,09,02,00,11.30
2012,08,09,02,01,11.30
2012,08,09,02,02,11.20
2012,08,09,02,03,11.20
2012,08,09,02,04,11.20
2012,08,09,02,05,11.20
2012,08,09,02,06,11.20
2012,08,09,02,07,11.20
2012,08,09,02,08,11.20
2012,08,09,02,09,11.20
2012,08,09,02,10,11.20
2012,08,09,02,11,11.30
2012,08,09,02,12,11.30
2012,08,09,02,13,11.30
2012,08,09,02,14,11.30
2012,08,09,02,15,11.30
2012,08,09,02,16,11.30
2012,08,09,02,17,11.30
2012,08,09,02,18,11.30
2012,08,09,02,19,11.30
2012,08,09,02,20,11.30
2012,08,09,02,21,11.30
2012,08,09,02,22,11.40
2012,08,09,02,23,11.40
2012,08,09,02,24,11.40
2012,08,09,02,25,11.40
2012,08,09,02,26,11.30
2012,08,09,02,27,11.30
2012,08,09,02,28,11.30
2012,08,09,02,29,11.30
2012,08,09,02,30,11.30
2012,08,09,02,31,11.30
2012,08,09,02,32,11.30
2012,08,09,02,33,11.30
2012,08,09,02,34,11.30
2012,08,09,02,35,11.30
2012,08,09,02,36,11.30
2012,08,09,02,37,11.30
2012,08,09,02,38,11.30
2012,08,09,02,39,11.30
2012,08,09,02,40,11.30
2012,08,09,02,41,11.30
2012,08,09,02,42,11.30
2012,08,09,02,43,11.30
2012,08,09,02,44,11.30
2012,08,09,02,45,11.30
2012,08,09,02,46,11.30
2012,08,09,02,47,11.20
2012,08,09,02,48,11.20
2012,08,09,02,49,11.20
2012,08,09,02,50,11.20
2012,08,09,02,51,11.20
2012,08,09,02,52,11.20
2012,08,09,02,53,11.30
2012,08,09,02,54,11.30
2012,08,09,02,55,11.30
2012,08,09,02,56,11.30
2012,08,09,02,57,11.40
2012,08,09,02,58,11.40
2012,08,09,02,59,11.50
2012,08,09,03,00,11.60
2012,08,09,03,01,11.60
2012,08,09,03,02,11.60
2012,08,09,03,03,11.60
2012,08,09,03,04,11.60
2012,08,09,03,05,11.70
2012,08,09,03,06,11.70
2012,08,09,03,07,11.70
2012,08,09,03,08,11.70
2012,08,09,03,09,11.80
2012,08,09,03,10,11.80
2012,08,09,03,11,11.80
2012,08,09,03,12,11.80
2012,08,09,03,13,11.80
2012,08,09,03,14,11.80
2012,08,09,03,15,11.90
2012,08,09,03,16,11.80
2012,08,09,03,17,11.90
2012,08,09,03,18,11.90
2012,08,09,03,19,12.00
2012,08,09,03,20,12.10
2012,08,09,03,21,12.10
2012,08,09,03,22,12.10
2012,08,09,03,23,12.20
2012,08,09,03,24,12.20
2012,08,09,03,25,12.20
2012,08,09,03,26,12.30
2012,08,09,03,27,12.30
2012,08,09,03,28,12.30
2012,08,09,03,29,12.30
2012,08,09,03,30,12.30
2012,08,09,03,31,12.30
2012,08,09,03,32,12.30
2012,08,09,03,33,12.20
2012,08,09,03,34,12.20
2012,08,09,03,35,12.20
2012,08,09,03,36,12.30
2012,08,09,03,37,12.20
2012,08,09,03,38,12.20
2012,08,09,03,39,12.20
2012,08,09,03,40,12.20
2012,08,09,03,41,12.20
2012,08,09,03,42,12.20
2012,08,09,03,43,12.20
2012,08,09,03,44,12.10
2012,08,09,03,45,12.10
2012,08,09,03,46,12.10
2012,08,09,03,47,12.10
2012,08,09,03,48,12.10
2012,08,09,03,49,12.10
2012,08,09,03,50,12.10
2012,08,09,03,51,12.10
2012,08,09,03,52,12.10
2012,08,09,03,53,12.10
2012,08,09,03,54,12.10
2012,08,09,03,55,12.10
2012,08,09,03,56,12.10
2012,08,09,03,57,12.10
2012,08,09,03,58,12.10
2012,08,09,03,59,12.10
2012,08,09,04,00,12.10
2012,08,09,04,01,12.00
2012,08,09,04,02,12.00
2012,08,09,04,03,12.00
2012,08,09,04,04,12.00
2012,08,09,04,05,11.90
2012,08,09,04,06,11.90
2012,08,09,04,07,11.90
2012,08,09,04,08,11.80
2012,08,09,04,09,11.80
2012,08,09,04,10,11.70
2012,08,09,04,11,11.70
2012,08,09,04,12,11.70
2012,08,09,04,13,11.60
2012,08,09,04,14,11.60
2012,08,09,04,15,11.60
2012,08,09,04,16,11.60
2012,08,09,04,17,11.50
2012,08,09,04,18,11.50
2012,08,09,04,19,11.40
2012,08,09,04,20,11.40
2012,08,09,04,21,11.40
2012,08,09,04,22,11.30
2012,08,09,04,23,11.30
2012,08,09,04,24,11.30
2012,08,09,04,25,11.30
2012,08,09,04,26,11.30
2012,08,09,04,27,11.20
2012,08,09,04,28,11.20
2012,08,09,04,29,11.20
2012,08,09,04,30,11.20
2012,08,09,04,31,11.20
2012,08,09,04,32,11.20
2012,08,09,04,33,11.10
2012,08,09,04,34,11.10
2012,08,09,04,35,11.10
2012,08,09,04,36,11.10
2012,08,09,04,37,11.10
2012,08,09,04,38,11.10
2012,08,09,04,39,11.10
2012,08,09,04,40,11.10
2012,08,09,04,41,11.10
2012,08,09,04,42,11.10
2012,08,09,04,43,11.10
2012,08,09,04,44,11.00
2012,08,09,04,45,11.00
2012,08,09,04,46,11.00
2012,08,09,04,47,10.90
2012,08,09,04,48,10.90
2012,08,09,04,49,10.90
2012,08,09,04,50,10.90
2012,08,09,04,51,10.90
2012,08,09,04,52,10.90
2012,08,09,04,53,10.80
2012,08,09,04,54,10.80
2012,08,09,04,55,10.80
2012,08,09,04,56,10.80
2012,08,09,04,57,10.80
2012,08,09,04,58,10.80
2012,08,09,04,59,10.80
2012,08,09,05,00,10.80
2012,08,09,05,01,10.80
2012,08,09,05,02,10.80
2012,08,09,05,03,10.80
2012,08,09,05,04,10.80
2012,08,09,05,05,10.80
2012,08,09,05,06,10.80
2012,08,09,05,07,10.80
2012,08,09,05,08,10.80
2012,08,09,05,09,10.80
2012,08,09,05,10,10.80
2012,08,09,05,11,10.80
2012,08,09,05,12,10.80
2012,08,09,05,13,10.80
2012,08,09,05,14,10.80
2012,08,09,05,15,10.80
2012,08,09,05,16,10.80
2012,08,09,05,17,10.80
2012,08,09,05,18,10.80
2012,08,09,05,19,10.80
2012,08,09,05,20,10.80
2012,08,09,05,21,10.90
2012,08,09,05,22,10.90
2012,08,09,05,23,10.90
2012,08,09,05,24,10.90
2012,08,09,05,25,10.90
2012,08,09,05,26,10.90
2012,08,09,05,27,11.00
2012,08,09,05,28,11.00
2012,08,09,05,29,11.00
2012,08,09,05,30,11.00
2012,08,09,05,31,11.00
2012,08,09,05,32,11.10
2012,08,09,05,33,11.10
2012,08,09,05,34,11.10
2012,08,09,05,35,11.10
2012,08,09,05,36,11.10
2012,08,09,05,37,11.10
2012,08,09,05,38,11.10
2012,08,09,05,39,11.10
2012,08,09,05,40,11.10
2012,08,09,05,41,11.10
2012,08,09,05,42,11.10
2012,08,09,05,43,11.10
2012,08,09,05,44,11.20
2012,08,09,05,45,11.20
2012,08,09,05,46,11.20
2012,08,09,05,47,11.30
2012,08,09,05,48,11.30
2012,08,09,05,49,11.30
2012,08,09,05,50,11.30
2012,08,09,05,51,11.30
2012,08,09,05,52,11.30
2012,08,09,05,53,11.30
2012,08,09,05,54,11.30
2012,08,09,05,55,11.30
2012,08,09,05,56,11.30
2012,08,09,05,57,11.30
2012,08,09,05,58,11.30
2012,08,09,05,59,11.20
2012,08,09,06,00,11.20
2012,08,09,06,01,11.20
2012,08,09,06,02,11.20
2012,08,09,06,03,11.20
2012,08,09,06,04,11.20
2012,08,09,06,05,11.20
2012,08,09,06,06,11.20
2012,08,09,06,07,11.20
2012,08,09,06,08,11.20
2012,08,09,06,09,11.20
2012,08,09,06,10,11.20
2012,08,09,06,11,11.30
2012,08,09,06,12,11.30
2012,08,09,06,13,11.30
2012,08,09,06,14,11.30
2012,08,09,06,15,11.30
2012,08,09,06,16,11.30
2012,08,09,06,17,11.30
2012,08,09,06,18,11.30
2012,08,09,06,19,11.30
2012,08,09,06,20,11.30
2012,08,09,06,21,11.30
2012,08,09,06,22,11.30
2012,08,09,06,23,11.30
2012,08,09,06,24,11.30
2012,08,09,06,25,11.30
2012,08,09,06,26,11.30
2012,08,09,06,27,11.30
2012,08,09,06,28,11.20
2012,08,09,06,29,11.20
2012,08,09,06,30,11.20
2012,08,09,06,31,11.30
2012,08,09,06,32,11.30
2012,08,09,06,33,11.30
2012,08,09,06,34,11.30
2012,08,09,06,35,11.30
2012,08,09,06,36,11.30
2012,08,09,06,37,11.30
2012,08,09,06,38,11.30
2012,08,09,06,39,11.30
2012,08,09,06,40,11.30
2012,08,09,06,41,11.30
2012,08,09,06,42,11.30
2012,08,09,06,43,11.30
2012,08,09,06,44,11.30
2012,08,09,06,45,11.30
2012,08,09,06,46,11.30
2012,08,09,06,47,11.30
2012,08,09,06,48,11.30
2012,08,09,06,49,11.30
2012,08,09,06,50,11.30
2012,08,09,06,51,11.30
2012,08,09,06,52,11.40
2012,08,09,06,53,11.40
2012,08,09,06,54,11.40
2012,08,09,06,55,11.40
2012,08,09,06,56,11.40
2012,08,09,06,57,11.40
2012,08,09,06,58,11.40
2012,08,09,06,59,11.50
2012,08,09,07,00,11.50
2012,08,09,07,01,11.50
2012,08,09,07,02,11.50
2012,08,09,07,03,11.60
2012,08,09,07,04,11.60
2012,08,09,07,05,11.60
2012,08,09,07,06,11.70
2012,08,09,07,07,11.70
2012,08,09,07,08,11.70
2012,08,09,07,09,11.80
2012,08,09,07,10,11.80
2012,08,09,07,11,11.80
2012,08,09,07,12,11.80
2012,08,09,07,13,11.90
2012,08,09,07,14,11.90
2012,08,09,07,15,11.90
2012,08,09,07,16,12.00
2012,08,09,07,17,12.00
2012,08,09,07,18,12.00
2012,08,09,07,19,12.10
2012,08,09,07,20,12.10
2012,08,09,07,21,12.10
2012,08,09,07,22,12.10
2012,08,09,07,23,12.10
2012,08,09,07,24,12.20
2012,08,09,07,25,12.20
2012,08,09,07,26,12.20
2012,08,09,07,27,12.20
2012,08,09,07,28,12.30
2012,08,09,07,29,12.30
2012,08,09,07,30,12.30
2012,08,09,07,31,12.40
2012,08,09,07,32,12.40
2012,08,09,07,33,12.40
2012,08,09,07,34,12.50
2012,08,09,07,35,12.50
2012,08,09,07,36,12.60
2012,08,09,07,37,12.60
2012,08,09,07,38,12.60
2012,08,09,07,39,12.70
2012,08,09,07,40,12.70
2012,08,09,07,41,12.70
2012,08,09,07,42,12.80
2012,08,09,07,43,12.80
2012,08,09,07,44,12.80
2012,08,09,07,45,12.90
2012,08,09,07,46,12.90
2012,08,09,07,47,12.90
2012,08,09,07,48,13.00
2012,08,09,07,49,13.00
2012,08,09,07,50,13.10
2012,08,09,07,51,13.10
2012,08,09,07,52,13.10
2012,08,09,07,53,13.20
2012,08,09,07,54,13.20
2012,08,09,07,55,13.30
2012,08,09,07,56,13.30
2012,08,09,07,57,13.30
2012,08,09,07,58,13.30
2012,08,09,07,59,13.30
2012,08,09,08,00,13.30
2012,08,09,08,01,13.40
2012,08,09,08,02,13.40
2012,08,09,08,03,13.40
2012,08,09,08,04,13.50
2012,08,09,08,05,13.50
2012,08,09,08,06,13.50
2012,08,09,08,07,13.50
2012,08,09,08,08,13.50
2012,08,09,08,09,13.50
2012,08,09,08,10,13.50
2012,08,09,08,11,13.60
2012,08,09,08,12,13.60
2012,08,09,08,13,13.60
2012,08,09,08,14,13.60
2012,08,09,08,15,13.70
2012,08,09,08,16,13.70
2012,08,09,08,17,13.70
2012,08,09,08,18,13.80
2012,08,09,08,19,13.80
2012,08,09,08,20,13.80
2012,08,09,08,21,13.80
2012,08,09,08,22,13.80
2012,08,09,08,23,13.80
2012,08,09,08,24,13.90
2012,08,09,08,25,13.90
2012,08,09,08,26,13.90
2012,08,09,08,27,13.90
2012,08,09,08,28,13.90
2012,08,09,08,29,13.90
2012,08,09,08,30,14.00
2012,08,09,08,31,14.00
2012,08,09,08,32,14.00
2012,08,09,08,33,14.10
2012,08,09,08,34,14.10
2012,08,09,08,35,14.10
2012,08,09,08,36,14.10
2012,08,09,08,37,14.10
2012,08,09,08,38,14.10
2012,08,09,08,39,14.10
2012,08,09,08,40,14.10
2012,08,09,08,41,14.20
2012,08,09,08,42,14.20
2012,08,09,08,43,14.20
2012,08,09,08,44,14.20
2012,08,09,08,45,14.30
2012,08,09,08,46,14.30
2012,08,09,08,47,14.30
2012,08,09,08,48,14.40
2012,08,09,08,49,14.40
2012,08,09,08,50,14.40
2012,08,09,08,51,14.40
2012,08,09,08,52,14.50
2012,08,09,08,53,14.50
2012,08,09,08,54,14.60
2012,08,09,08,55,14.60
2012,08,09,08,56,14.60
2012,08,09,08,57,14.70
2012,08,09,08,58,14.70
2012,08,09,08,59,14.70
2012,08,09,09,00,14.80
2012,08,09,09,01,14.80
2012,08,09,09,02,14.90
2012,08,09,09,03,14.90
2012,08,09,09,04,15.00
2012,08,09,09,05,15.00
2012,08,09,09,06,15.00
2012,08,09,09,07,15.00
2012,08,09,09,08,15.00
2012,08,09,09,09,15.00
2012,08,09,09,10,15.00
2012,08,09,09,11,15.00
2012,08,09,09,12,15.00
2012,08,09,09,13,15.00
2012,08,09,09,14,15.00
2012,08,09,09,15,15.20
2012,08,09,09,16,15.20
2012,08,09,09,17,15.30
2012,08,09,09,18,15.30
2012,08,09,09,19,15.40
2012,08,09,09,20,15.40
2012,08,09,09,21,15.50
2012,08,09,09,22,15.60
2012,08,09,09,23,15.60
2012,08,09,09,24,15.60
2012,08,09,09,25,15.70
2012,08,09,09,26,15.70
2012,08,09,09,27,15.70
2012,08,09,09,28,15.80
2012,08,09,09,29,15.80
2012,08,09,09,30,15.90
2012,08,09,09,31,15.90
2012,08,09,09,32,15.90
2012,08,09,09,33,16.00
2012,08,09,09,34,16.00
2012,08,09,09,35,16.00
2012,08,09,09,36,16.00
2012,08,09,09,37,16.00
2012,08,09,09,38,16.00
2012,08,09,09,39,15.90
2012,08,09,09,40,15.90
2012,08,09,09,41,15.90
2012,08,09,09,42,15.90
2012,08,09,09,43,15.90
2012,08,09,09,44,15.80
2012,08,09,09,45,15.80
2012,08,09,09,46,15.80
2012,08,09,09,47,15.80
2012,08,09,09,48,15.80
2012,08,09,09,49,15.90
2012,08,09,09,50,15.90
2012,08,09,09,51,16.00
2012,08,09,09,52,16.10
2012,08,09,09,53,16.20
2012,08,09,09,54,16.30
2012,08,09,09,55,16.40
2012,08,09,09,56,16.60
2012,08,09,09,57,16.60
2012,08,09,09,58,16.70
2012,08,09,09,59,16.70
2012,08,09,10,00,16.80
2012,08,09,10,01,16.80
2012,08,09,10,02,16.90
2012,08,09,10,03,16.90
2012,08,09,10,04,16.90
2012,08,09,10,05,16.90
2012,08,09,10,06,16.90
2012,08,09,10,07,16.90
2012,08,09,10,08,16.90
2012,08,09,10,09,16.90
2012,08,09,10,10,16.90
2012,08,09,10,11,17.00
2012,08,09,10,12,17.00
2012,08,09,10,13,17.00
2012,08,09,10,14,17.00
2012,08,09,10,15,17.00
2012,08,09,10,16,17.00
2012,08,09,10,17,17.00
2012,08,09,10,18,17.00
2012,08,09,10,19,17.10
2012,08,09,10,20,17.10
2012,08,09,10,21,17.20
2012,08,09,10,22,17.30
2012,08,09,10,23,17.40
2012,08,09,10,24,17.50
2012,08,09,10,25,17.60
2012,08,09,10,26,17.70
2012,08,09,10,27,17.80
2012,08,09,10,28,17.90
2012,08,09,10,29,17.90
2012,08,09,10,30,17.90
2012,08,09,10,31,17.90
2012,08,09,10,32,17.90
2012,08,09,10,33,17.90
2012,08,09,10,34,18.00
2012,08,09,10,35,18.10
2012,08,09,10,36,18.20
2012,08,09,10,37,18.30
2012,08,09,10,38,18.50
2012,08,09,10,39,18.60
2012,08,09,10,40,18.70
2012,08,09,10,41,18.80
2012,08,09,10,42,18.90
2012,08,09,10,43,19.00
2012,08,09,10,44,19.10
2012,08,09,10,45,19.20
2012,08,09,10,46,19.30
2012,08,09,10,47,19.40
2012,08,09,10,48,19.40
2012,08,09,10,49,19.50
2012,08,09,10,50,19.50
2012,08,09,10,51,19.40
2012,08,09,10,52,19.40
2012,08,09,10,53,19.50
2012,08,09,10,54,19.50
2012,08,09,10,55,19.60
2012,08,09,10,56,19.70
2012,08,09,10,57,19.80
2012,08,09,10,58,19.80
2012,08,09,10,59,19.90
2012,08,09,11,00,20.00
2012,08,09,11,01,20.10
2012,08,09,11,02,20.10
2012,08,09,11,03,20.10
2012,08,09,11,04,20.10
2012,08,09,11,05,20.20
2012,08,09,11,06,20.30
2012,08,09,11,07,20.40
2012,08,09,11,08,20.50
2012,08,09,11,09,20.70
2012,08,09,11,10,20.80
2012,08,09,11,11,21.00
2012,08,09,11,12,21.10
2012,08,09,11,13,21.10
2012,08,09,11,14,21.20
2012,08,09,11,15,21.30
2012,08,09,11,16,21.40
2012,08,09,11,17,21.50
2012,08,09,11,18,21.50
2012,08,09,11,19,21.50
2012,08,09,11,20,21.40
2012,08,09,11,21,21.40
2012,08,09,11,22,21.40
2012,08,09,11,23,21.40
2012,08,09,11,24,21.40
2012,08,09,11,25,21.40
2012,08,09,11,26,21.30
2012,08,09,11,27,21.20
2012,08,09,11,28,21.20
2012,08,09,11,29,21.20
2012,08,09,11,30,21.20
2012,08,09,11,31,21.20
2012,08,09,11,32,21.20
2012,08,09,11,33,21.20
2012,08,09,11,34,21.30
2012,08,09,11,35,21.30
2012,08,09,11,36,21.40
2012,08,09,11,37,21.30
2012,08,09,11,38,21.40
2012,08,09,11,39,21.40
2012,08,09,11,40,21.50
2012,08,09,11,41,21.60
2012,08,09,11,42,21.70
2012,08,09,11,43,21.80
2012,08,09,11,44,21.90
2012,08,09,11,45,21.90
2012,08,09,11,46,21.90
2012,08,09,11,47,21.90
2012,08,09,11,48,21.90
2012,08,09,11,49,21.90
2012,08,09,11,50,21.90
2012,08,09,11,51,22.00
2012,08,09,11,52,21.90
2012,08,09,11,53,21.90
2012,08,09,11,54,21.80
2012,08,09,11,55,21.80
2012,08,09,11,56,21.90
2012,08,09,11,57,21.90
2012,08,09,11,58,21.90
2012,08,09,11,59,21.90
2012,08,09,12,00,21.90
2012,08,09,12,01,22.00
2012,08,09,12,02,22.10
2012,08,09,12,03,22.20
2012,08,09,12,04,22.20
2012,08,09,12,05,22.20
2012,08,09,12,06,22.20
2012,08,09,12,07,22.20
2012,08,09,12,08,22.10
2012,08,09,12,09,22.10
2012,08,09,12,10,22.10
2012,08,09,12,11,22.10
2012,08,09,12,12,22.10
2012,08,09,12,13,22.10
2012,08,09,12,14,22.10
2012,08,09,12,15,22.00
2012,08,09,12,16,22.00
2012,08,09,12,17,22.10
2012,08,09,12,18,22.10
2012,08,09,12,19,22.20
2012,08,09,12,20,22.20
2012,08,09,12,21,22.20
2012,08,09,12,22,22.30
2012,08,09,12,23,22.30
2012,08,09,12,24,22.30
2012,08,09,12,25,22.30
2012,08,09,12,26,22.30
2012,08,09,12,27,22.30
2012,08,09,12,28,22.30
2012,08,09,12,29,22.40
2012,08,09,12,30,22.50
2012,08,09,12,31,22.50
2012,08,09,12,32,22.50
2012,08,09,12,33,22.50
2012,08,09,12,34,22.40
2012,08,09,12,35,22.40
2012,08,09,12,36,22.50
2012,08,09,12,37,22.60
2012,08,09,12,38,22.70
2012,08,09,12,39,22.80
2012,08,09,12,40,22.90
2012,08,09,12,41,23.00
2012,08,09,12,42,23.10
2012,08,09,12,43,23.10
2012,08,09,12,44,23.20
2012,08,09,12,45,23.30
2012,08,09,12,46,23.30
2012,08,09,12,47,23.30
2012,08,09,12,48,23.30
2012,08,09,12,49,23.40
2012,08,09,12,50,23.50
2012,08,09,12,51,23.60
2012,08,09,12,52,23.70
2012,08,09,12,53,23.70
2012,08,09,12,54,23.70
2012,08,09,12,55,23.80
2012,08,09,12,56,23.80
2012,08,09,12,57,23.70
2012,08,09,12,58,23.60
2012,08,09,12,59,23.60
2012,08,09,13,00,23.60
2012,08,09,13,01,23.50
2012,08,09,13,02,23.40
2012,08,09,13,03,23.30
2012,08,09,13,04,23.30
2012,08,09,13,05,23.30
2012,08,09,13,06,23.30
2012,08,09,13,07,23.40
2012,08,09,13,08,23.40
2012,08,09,13,09,23.50
2012,08,09,13,10,23.50
2012,08,09,13,11,23.60
2012,08,09,13,12,23.70
2012,08,09,13,13,23.80
2012,08,09,13,14,23.90
2012,08,09,13,15,24.00
2012,08,09,13,16,24.10
2012,08,09,13,17,24.10
2012,08,09,13,18,24.20
2012,08,09,13,19,24.30
2012,08,09,13,20,24.30
2012,08,09,13,21,24.30
2012,08,09,13,22,24.30
2012,08,09,13,23,24.30
2012,08,09,13,24,24.40
2012,08,09,13,25,24.40
2012,08,09,13,26,24.50
2012,08,09,13,27,24.50
2012,08,09,13,28,24.40
2012,08,09,13,29,24.40
2012,08,09,13,30,24.40
2012,08,09,13,31,24.30
2012,08,09,13,32,24.30
2012,08,09,13,33,24.30
2012,08,09,13,34,24.40
2012,08,09,13,35,24.50
2012,08,09,13,36,24.70
2012,08,09,13,37,24.80
2012,08,09,13,38,24.70
2012,08,09,13,39,24.70
2012,08,09,13,40,24.70
2012,08,09,13,41,24.70
2012,08,09,13,42,24.70
2012,08,09,13,43,24.70
2012,08,09,13,44,24.80
2012,08,09,13,45,24.90
2012,08,09,13,46,25.00
2012,08,09,13,47,25.10
2012,08,09,13,48,25.10
2012,08,09,13,49,25.10
2012,08,09,13,50,25.00
2012,08,09,13,51,25.00
2012,08,09,13,52,25.00
2012,08,09,13,53,24.90
2012,08,09,13,54,24.90
2012,08,09,13,55,24.90
2012,08,09,13,56,24.90
2012,08,09,13,57,24.90
2012,08,09,13,58,24.90
2012,08,09,13,59,24.90
2012,08,09,14,00,25.00
2012,08,09,14,01,25.10
2012,08,09,14,02,25.10
2012,08,09,14,03,25.20
2012,08,09,14,04,25.30
2012,08,09,14,05,25.40
2012,08,09,14,06,25.60
2012,08,09,14,07,25.70
2012,08,09,14,08,25.70
2012,08,09,14,09,25.70
2012,08,09,14,10,25.80
2012,08,09,14,11,25.80
2012,08,09,14,12,25.70
2012,08,09,14,13,25.70
2012,08,09,14,14,25.70
2012,08,09,14,15,25.80
2012,08,09,14,16,25.90
2012,08,09,14,17,25.90
2012,08,09,14,18,25.90
2012,08,09,14,19,25.90
2012,08,09,14,20,25.90
2012,08,09,14,21,25.90
2012,08,09,14,22,25.80
2012,08,09,14,23,25.60
2012,08,09,14,24,25.40
2012,08,09,14,25,25.30
2012,08,09,14,26,25.20
2012,08,09,14,27,25.20
2012,08,09,14,28,25.20
2012,08,09,14,29,25.10
2012,08,09,14,30,25.10
2012,08,09,14,31,25.10
2012,08,09,14,32,25.10
2012,08,09,14,33,25.20
2012,08,09,14,34,25.20
2012,08,09,14,35,25.30
2012,08,09,14,36,25.40
2012,08,09,14,37,25.50
2012,08,09,14,38,25.60
2012,08,09,14,39,25.70
2012,08,09,14,40,25.80
2012,08,09,14,41,25.80
2012,08,09,14,42,25.80
2012,08,09,14,43,25.80
2012,08,09,14,44,25.70
2012,08,09,14,45,25.50
2012,08,09,14,46,25.40
2012,08,09,14,47,25.30
2012,08,09,14,48,25.30
2012,08,09,14,49,25.30
2012,08,09,14,50,25.20
2012,08,09,14,51,25.30
2012,08,09,14,52,25.40
2012,08,09,14,53,25.50
2012,08,09,14,54,25.70
2012,08,09,14,55,25.80
2012,08,09,14,56,25.90
2012,08,09,14,57,25.80
2012,08,09,14,58,25.80
2012,08,09,14,59,25.90
2012,08,09,15,00,25.90
2012,08,09,15,01,25.70
2012,08,09,15,02,25.50
2012,08,09,15,03,25.30
2012,08,09,15,04,25.20
2012,08,09,15,05,25.20
2012,08,09,15,06,25.30
2012,08,09,15,07,25.30
2012,08,09,15,08,25.50
2012,08,09,15,09,25.60
2012,08,09,15,10,25.70
2012,08,09,15,11,25.80
2012,08,09,15,12,25.90
2012,08,09,15,13,26.00
2012,08,09,15,14,26.10
2012,08,09,15,15,26.20
2012,08,09,15,16,26.30
2012,08,09,15,17,26.40
2012,08,09,15,18,26.50
2012,08,09,15,19,26.60
2012,08,09,15,20,26.70
2012,08,09,15,21,26.60
2012,08,09,15,22,26.50
2012,08,09,15,23,26.50
2012,08,09,15,24,26.50
2012,08,09,15,25,26.40
2012,08,09,15,26,26.40
2012,08,09,15,27,26.40
2012,08,09,15,28,26.50
2012,08,09,15,29,26.50
2012,08,09,15,30,26.60
2012,08,09,15,31,26.60
2012,08,09,15,32,26.60
2012,08,09,15,33,26.60
2012,08,09,15,34,26.60
2012,08,09,15,35,26.60
2012,08,09,15,36,26.60
2012,08,09,15,37,26.60
2012,08,09,15,38,26.60
2012,08,09,15,39,26.50
2012,08,09,15,40,26.40
2012,08,09,15,41,26.30
2012,08,09,15,42,26.20
2012,08,09,15,43,26.00
2012,08,09,15,44,25.90
2012,08,09,15,45,25.80
2012,08,09,15,46,25.70
2012,08,09,15,47,25.70
2012,08,09,15,48,25.70
2012,08,09,15,49,25.80
2012,08,09,15,50,25.90
2012,08,09,15,51,25.90
2012,08,09,15,52,26.00
2012,08,09,15,53,26.20
2012,08,09,15,54,26.20
2012,08,09,15,55,26.30
2012,08,09,15,56,26.30
2012,08,09,15,57,26.30
2012,08,09,15,58,26.30
2012,08,09,15,59,26.30
2012,08,09,16,00,26.40
2012,08,09,16,01,26.50
2012,08,09,16,02,26.60
2012,08,09,16,03,26.70
2012,08,09,16,04,26.70
2012,08,09,16,05,26.80
2012,08,09,16,06,26.90
2012,08,09,16,07,27.00
2012,08,09,16,08,27.00
2012,08,09,16,09,26.90
2012,08,09,16,10,26.80
2012,08,09,16,11,26.70
2012,08,09,16,12,26.70
2012,08,09,16,13,26.60
2012,08,09,16,14,26.60
2012,08,09,16,15,26.50
2012,08,09,16,16,26.40
2012,08,09,16,17,26.40
2012,08,09,16,18,26.50
2012,08,09,16,19,26.50
2012,08,09,16,20,26.60
2012,08,09,16,21,26.70
2012,08,09,16,22,26.70
2012,08,09,16,23,26.70
2012,08,09,16,24,26.70
2012,08,09,16,25,26.70
2012,08,09,16,26,26.70
2012,08,09,16,27,26.70
2012,08,09,16,28,26.60
2012,08,09,16,29,26.50
2012,08,09,16,30,26.40
2012,08,09,16,31,26.30
2012,08,09,16,32,26.20
2012,08,09,16,33,26.20
2012,08,09,16,34,26.20
2012,08,09,16,35,26.20
2012,08,09,16,36,26.10
2012,08,09,16,37,26.00
2012,08,09,16,38,26.00
2012,08,09,16,39,26.00
2012,08,09,16,40,26.10
2012,08,09,16,41,26.10
2012,08,09,16,42,26.20
2012,08,09,16,43,26.20
2012,08,09,16,44,26.20
2012,08,09,16,45,26.30
2012,08,09,16,46,26.40
2012,08,09,16,47,26.50
2012,08,09,16,48,26.50
2012,08,09,16,49,26.60
2012,08,09,16,50,26.60
2012,08,09,16,51,26.60
2012,08,09,16,52,26.70
2012,08,09,16,53,26.70
2012,08,09,16,54,26.70
2012,08,09,16,55,26.70
2012,08,09,16,56,26.70
2012,08,09,16,57,26.70
2012,08,09,16,58,26.70
2012,08,09,16,59,26.60
2012,08,09,17,00,26.50
2012,08,09,17,01,26.30
2012,08,09,17,02,26.20
2012,08,09,17,03,26.10
2012,08,09,17,04,26.00
2012,08,09,17,05,25.90
2012,08,09,17,06,25.80
2012,08,09,17,07,25.70
2012,08,09,17,08,25.60
2012,08,09,17,09,25.60
2012,08,09,17,10,25.60
2012,08,09,17,11,25.60
2012,08,09,17,12,25.60
2012,08,09,17,13,25.60
2012,08,09,17,14,25.60
2012,08,09,17,15,25.50
2012,08,09,17,16,25.30
2012,08,09,17,17,25.10
2012,08,09,17,18,25.00
2012,08,09,17,19,24.80